Wind_Speed
28 29 28 28 27 27 29 29 30 30 31 31 31 32 31 31 31 31 32 33 34 34 35 35 36 37 38 39 41 42 43 43 44 45 47 48 49 49 49 50 50 50 50 50
28 28 29 28 27 28 28 29 30 30 29 29 31 31 31 31 31 31 32 33 33 34 34 35 36 37 38 39 40 41 42 43 44 45 46 47 48 49 49 49 49 49 49 49
28 28 29 29 27 28 28 28 29 30 29 29 29 31 31 31 31 31 31 32 32 33 34 34 35 36 37 37 38 40 41 42 43 44 45 45 47 47 47 48 48 48 47 47
28 28 29 27 26 27 28 28 29 29 29 29 29 30 31 31 30 30 30 31 31 32 32 33 34 35 36 36 37 37 38 39 40 41 42 43 43 44 44 44 45 45 45 44
28 29 29 27 26 27 28 28 29 30 29 29 29 29 30 30 30 30 30 30 31 31 31 32 33 34 35 36 36 36 37 37 37 38 39 40 40 40 41 42 42 42 43 43
28 29 29 27 27 27 28 29 28 29 29 29 29 29 28 29 30 31 31 31 31 30 30 31 32 33 33 34 34 35 34 34 35 36 37 37 38 38 38 38 39 39 39 40
28 29 29 27 27 27 28 28 27 28 27 28 28 28 29 29 29 29 30 31 31 30 30 30 30 31 32 32 32 33 33 33 34 34 35 36 36 36 36 36 36 37 37 37
27 28 28 27 27 27 27 27 27 27 27 27 27 27 28 28 28 29 29 30 30 30 30 30 30 31 31 31 30 31 31 32 32 33 33 33 34 35 35 35 35 35 35 36
26 26 26 26 27 27 27 27 27 27 27 27 26 27 27 28 28 29 29 29 29 29 30 30 31 30 30 29 29 29 30 30 31 31 31 32 32 33 34 34 34 34 34 34
25 24 25 26 27 27 27 27 27 27 26 26 26 27 28 28 28 29 29 29 29 29 29 30 30 30 29 29 28 28 28 29 30 30 31 31 31 32 32 33 33 33 34 34
24 24 24 25 26 26 26 26 26 26 27 27 26 27 27 27 27 28 28 28 28 28 28 28 28 29 29 29 28 28 29 29 29 30 30 31 31 31 31 31 32 32 32 32
23 23 25 24 25 25 25 25 25 25 25 25 25 25 26 26 26 26 26 26 26 26 26 26 27 27 28 28 28 28 28 28 29 29 29 30 30 30 30 30 29 29 29 29
23 23 24 25 25 25 24 25 25 24 24 24 24 24 24 24 24 24 24 24 24 24 25 25 25 25 26 26 26 27 27 27 27 27 27 28 28 28 28 27 27 27 28 28
22 23 23 23 24 24 24 24 24 24 24 23 23 24 24 24 24 24 24 24 23 24 24 24 24 24 24 25 25 25 25 25 25 25 25 25 25 25 25 26 26 25 26 26
21 21 21 21 21 22 22 22 22 22 22 23 23 23 24 23 24 24 23 23 23 23 23 24 24 24 24 24 24 25 24 24 24 24 23 23 23 23 23 24 24 24 24 25
20 20 21 21 21 21 21 21 21 21 21 22 22 22 22 22 22 22 22 23 23 23 23 22 23 23 23 23 23 23 23 23 22 23 23 22 21 21 21 22 22 22 22 23
19 20 21 21 21 21 21 20 20 20 20 21 21 21 21 21 21 21 21 22 22 22 21 21 21 22 22 22 22 21 21 21 21 21 21 21 20 20 20 21 21 21 21 21
20 20 21 22 22 21 20 20 19 19 20 20 20 20 21 21 21 21 21 21 21 21 21 21 20 21 21 21 21 20 20 19 20 20 19 19 19 19 19 20 20 20 20 20
20 20 20 20 20 19 18 18 18 19 19 20 20 20 20 20 20 20 20 20 20 20 20 21 20 20 20 20 19 19 19 19 19 19 18 19 19 18 18 17 18 18 18 18
19 19 18 18 17 17 18 18 18 19 19 19 19 19 19 18 18 18 19 19 20 20 20 20 20 20 20 19 19 19 19 18 18 18 17 18 18 17 17 16 16 16 16 16
17 17 17 16 16 16 16 17 17 17 18 18 18 18 18 18 18 18 18 19 19 20 20 20 19 19 19 19 19 19 19 18 18 17 16 16 16 15 15 14 14 14 15 15
17 16 16 16 15 15 15 15 16 16 17 17 16 16 17 17 17 18 19 19 19 19 19 19 19 20 19 19 20 19 19 18 17 16 16 15 15 14 14 14 14 14 14 14
17 17 16 16 16 15 15 15 16 16 16 15 16 16 16 17 17 18 18 19 18 18 18 18 19 19 19 19 19 18 17 16 15 15 15 14 14 13 13 13 13 14 14 14
17 17 17 16 16 16 16 16 16 15 15 15 15 16 16 16 17 17 18 18 18 18 18 19 19 18 18 17 17 16 15 14 14 13 13 13 13 12 12 12 12 13 13 13
17 17 17 16 16 15 15 15 15 15 15 15 15 15 16 17 17 17 17 17 17 18 19 19 18 17 16 16 15 15 14 13 13 12 12 12 12 11 11 11 11 11 11 12
16 16 16 16 15 15 15 15 14 14 14 15 15 16 16 17 17 17 17 17 17 18 18 18 17 16 15 15 15 14 14 13 12 12 11 11 11 11 10 10 10 10 10 10
16 16 15 15 14 14 14 14 14 14 15 15 16 16 17 17 17 17 17 17 17 17 17 17 16 15 15 15 15 14 13 13 12 12 11 11 10 10 10 10 9 9 9 8
Wind_Direction
264 266 266 266 265 264 266 268 270 271 272 269 268 269 271 272 273 273 273 273 273 272 272 271 270 270 270 270 270 269 268 267 266 267 266 266 266 266 265 265 265 264 264 264
264 264 265 264 264 265 267 269 271 272 272 271 267 268 271 273 272 272 273 273 274 274 273 273 272 273 272 272 272 271 270 269 267 268 268 267 267 267 267 266 265 264 264 264
265 265 265 264 265 266 268 270 273 274 275 274 270 269 271 273 273 273 273 274 275 275 275 274 274 274 274 274 275 274 273 272 270 270 269 268 268 268 267 266 265 265 264 265
267 265 265 268 267 268 270 272 274 275 275 275 274 271 271 272 274 275 276 277 277 277 276 276 276 276 276 276 276 276 276 275 274 273 271 271 269 268 266 266 264 263 263 264
269 267 268 269 270 271 272 273 275 275 275 274 273 273 273 274 275 278 280 280 280 279 279 279 279 279 278 277 278 278 277 276 275 275 274 272 270 269 267 266 264 263 262 263
269 269 271 272 272 273 275 275 275 275 274 272 272 272 274 276 278 280 281 281 282 281 281 281 282 282 281 280 279 278 277 276 276 275 274 273 272 270 268 266 265 263 263 262
270 269 271 273 274 276 278 279 278 277 274 272 273 275 276 278 279 280 282 282 282 281 282 282 283 284 283 282 281 279 277 275 276 276 274 272 270 269 268 266 266 265 264 264
270 270 272 273 275 278 280 279 278 277 275 275 275 276 277 279 280 280 282 282 282 282 282 283 284 285 285 284 282 281 279 277 276 276 275 272 270 269 268 267 266 266 267 265
270 271 273 272 274 277 278 277 276 276 276 276 276 277 277 278 279 281 283 283 282 282 282 283 284 286 286 286 284 282 281 280 278 277 275 274 272 270 269 267 266 267 268 267
271 271 273 272 274 276 277 276 275 275 274 275 277 277 278 279 280 282 283 284 283 282 283 285 286 287 288 287 286 284 283 283 281 279 277 275 275 274 272 270 268 267 267 268
273 273 274 275 275 276 277 277 276 274 273 274 277 278 279 280 282 282 283 283 283 284 285 286 287 288 288 287 286 285 285 283 282 280 277 277 276 275 274 272 270 269 268 267
276 275 275 276 276 277 276 275 275 274 274 275 276 279 281 282 283 284 284 284 285 285 287 288 289 288 288 286 284 284 285 285 283 281 279 277 276 275 274 272 271 270 269 269
277 277 277 277 277 276 275 275 275 275 274 275 277 280 282 283 284 285 285 286 287 288 289 291 292 292 290 288 286 285 286 286 285 284 283 280 276 274 273 271 270 269 270 270
277 277 277 278 278 277 276 275 276 276 276 277 279 281 283 284 285 286 286 287 289 290 291 292 293 294 294 293 290 288 287 287 286 285 285 281 278 276 273 271 271 271 270 270
279 280 280 280 280 279 278 277 277 278 278 279 281 283 284 284 286 287 286 288 290 292 293 293 294 294 296 296 293 290 288 287 286 286 285 284 281 278 275 271 271 272 270 269
281 282 281 281 281 280 279 278 278 279 279 280 283 284 284 285 287 287 287 288 291 293 294 294 294 295 297 297 295 294 291 288 287 286 287 285 283 279 276 273 273 273 272 270
283 284 283 282 282 280 279 278 279 279 280 282 284 284 285 286 287 288 289 290 291 294 295 296 297 298 299 298 297 296 294 291 289 288 287 286 283 281 278 275 275 275 275 273
285 285 285 284 282 280 279 279 280 280 280 282 283 285 285 285 286 287 289 290 292 294 295 296 298 300 301 301 299 297 296 294 293 291 288 286 284 282 280 279 276 275 275 273
286 287 287 286 283 280 279 280 281 281 282 283 284 286 286 286 287 288 289 290 293 296 297 297 298 299 300 300 299 298 296 294 294 292 290 287 285 283 281 279 276 274 274 274
287 288 289 287 283 281 280 280 281 282 284 284 284 286 287 288 289 290 291 292 294 296 298 297 297 299 299 298 299 299 297 295 294 293 291 289 287 285 282 279 277 275 273 271
289 289 290 289 286 284 282 282 282 283 284 286 286 285 285 287 290 292 293 294 295 296 297 298 298 299 298 298 299 299 298 295 294 294 293 290 287 285 282 279 277 275 272 269
288 288 289 288 286 284 284 284 285 286 287 287 287 287 287 288 290 292 294 296 297 297 297 298 300 300 300 300 299 299 299 297 294 293 294 292 291 287 282 278 277 276 274 271
289 289 289 288 286 286 285 286 287 288 288 289 289 289 289 290 292 294 295 296 296 297 299 299 301 300 300 301 302 302 300 298 295 292 291 290 290 288 285 282 280 278 276 273
290 289 288 286 285 284 284 285 286 286 286 288 290 291 293 294 294 295 296 295 296 298 301 302 303 302 301 300 301 302 301 298 297 297 294 293 291 289 288 286 284 281 278 276
289 289 287 284 282 282 282 284 284 284 284 288 291 294 296 297 297 297 296 295 295 298 301 303 304 304 303 301 300 301 299 296 294 293 292 294 292 288 288 286 285 283 280 278
289 287 286 284 282 281 281 282 282 282 284 288 291 294 297 297 298 298 297 296 297 299 301 303 303 303 303 302 301 300 299 295 292 290 289 291 290 288 286 285 284 283 282 280
289 288 286 284 283 282 281 281 282 283 286 289 292 294 296 296 297 297 298 299 300 300 301 301 301 300 300 302 301 299 298 296 294 291 289 288 286 285 286 284 284 284 282 283
Height
5571 5571 5571 5572 5573 5573 5573 5573 5573 5574 5574 5575 5574 5574 5574 5573 5573 5573 5572 5571 5571 5571 5570 5570 5570 5569 5569 5569 5569 5569 5569 5569 5569 5569 5569 5569 5569 5570 5571 5572 5573 5573 5574 5576
5564 5564 5563 5564 5566 5565 5565 5566 5566 5566 5567 5567 5565 5565 5565 5565 5564 5564 5563 5562 5562 5561 5561 5560 5559 5559 5558 5558 5557 5557 5557 5556 5556 5556 5555 5555 5556 5556 5557 5558 5558 5559 5560 5562
5556 5556 5556 5557 5560 5559 5559 5559 5558 5558 5560 5558 5557 5557 5556 5556 5556 5555 5554 5554 5553 5552 5551 5550 5549 5548 5547 5546 5545 5545 5544 5543 5543 5543 5542 5542 5542 5542 5543 5543 5544 5545 5546 5548
5548 5549 5549 5554 5552 5551 5551 5551 5551 5550 5551 5550 5549 5549 5548 5548 5547 5546 5546 5545 5544 5543 5541 5540 5539 5538 5537 5536 5534 5533 5532 5531 5531 5530 5529 5529 5529 5529 5529 5530 5531 5532 5533 5535
5540 5540 5541 5545 5544 5543 5543 5544 5543 5542 5542 5542 5541 5541 5540 5539 5539 5538 5537 5536 5534 5533 5532 5531 5529 5528 5526 5525 5524 5522 5521 5520 5519 5518 5517 5517 5517 5517 5517 5517 5518 5519 5521 5522
5533 5533 5534 5538 5537 5535 5536 5536 5536 5534 5534 5533 5533 5533 5534 5532 5531 5530 5528 5527 5525 5524 5523 5521 5520 5518 5516 5515 5513 5512 5511 5510 5508 5507 5506 5506 5505 5505 5505 5506 5507 5507 5509 5510
5526 5525 5527 5529 5528 5528 5530 5530 5527 5526 5526 5525 5525 5525 5525 5523 5522 5521 5520 5518 5517 5515 5514 5512 5511 5509 5507 5505 5503 5502 5500 5499 5498 5497 5496 5495 5495 5494 5495 5495 5496 5497 5498 5499
5519 5519 5522 5522 5521 5521 5521 5520 5519 5518 5518 5517 5517 5516 5516 5515 5514 5513 5512 5510 5508 5507 5505 5504 5502 5500 5497 5495 5494 5492 5490 5489 5488 5486 5485 5484 5484 5484 5484 5484 5485 5486 5487 5488
5513 5515 5514 5513 5513 5513 5512 5512 5511 5510 5510 5510 5509 5509 5508 5507 5506 5505 5503 5502 5500 5499 5497 5495 5493 5491 5489 5486 5484 5483 5481 5479 5478 5476 5475 5474 5474 5473 5473 5474 5475 5476 5477 5478
5505 5506 5506 5506 5505 5505 5504 5504 5503 5503 5503 5502 5502 5501 5500 5499 5498 5497 5495 5494 5492 5490 5488 5487 5484 5482 5480 5478 5476 5474 5472 5470 5469 5467 5466 5465 5464 5463 5463 5463 5464 5465 5466 5467
5499 5500 5499 5498 5498 5498 5497 5496 5496 5495 5495 5495 5494 5493 5492 5491 5490 5489 5487 5485 5484 5482 5480 5478 5476 5474 5471 5469 5467 5465 5463 5462 5460 5458 5457 5456 5455 5454 5454 5454 5454 5455 5456 5457
5493 5493 5492 5492 5491 5490 5490 5489 5489 5488 5488 5487 5487 5486 5485 5484 5482 5481 5479 5477 5476 5474 5472 5470 5468 5465 5463 5460 5458 5457 5455 5453 5451 5450 5448 5447 5446 5446 5445 5445 5445 5445 5446 5447
5485 5485 5484 5484 5484 5483 5482 5482 5482 5481 5481 5480 5480 5479 5478 5477 5475 5473 5472 5470 5469 5467 5465 5462 5460 5457 5454 5452 5450 5448 5447 5445 5443 5441 5440 5439 5438 5438 5438 5438 5437 5437 5438 5438
5478 5478 5477 5477 5477 5476 5476 5475 5475 5474 5474 5473 5473 5472 5471 5470 5468 5467 5465 5463 5462 5460 5458 5455 5453 5450 5447 5444 5442 5440 5439 5437 5435 5434 5432 5431 5430 5430 5430 5430 5430 5430 5430 5430
5472 5471 5471 5471 5470 5470 5469 5468 5468 5468 5467 5467 5466 5465 5464 5463 5462 5460 5458 5457 5455 5453 5451 5448 5446 5443 5440 5438 5435 5433 5431 5430 5428 5427 5426 5424 5424 5423 5422 5422 5423 5423 5422 5422
5467 5466 5465 5465 5464 5463 5463 5462 5462 5461 5461 5460 5459 5458 5457 5456 5455 5453 5452 5450 5449 5447 5444 5442 5440 5437 5435 5432 5429 5427 5425 5423 5422 5421 5419 5418 5417 5416 5416 5416 5416 5416 5415 5415
5461 5460 5459 5459 5458 5457 5457 5456 5456 5455 5455 5454 5453 5452 5451 5450 5449 5447 5446 5444 5442 5440 5438 5436 5434 5432 5429 5426 5424 5422 5420 5418 5416 5415 5413 5412 5411 5410 5410 5410 5410 5409 5409 5409
5455 5455 5454 5453 5452 5451 5451 5450 5450 5449 5449 5448 5447 5446 5445 5444 5443 5441 5440 5438 5436 5435 5433 5431 5429 5426 5424 5421 5419 5416 5414 5412 5411 5409 5408 5406 5405 5405 5404 5404 5403 5403 5403 5403
5450 5449 5448 5446 5446 5445 5445 5444 5444 5443 5443 5442 5441 5440 5439 5438 5437 5435 5434 5433 5431 5429 5427 5425 5423 5421 5419 5416 5414 5411 5409 5407 5406 5404 5402 5401 5400 5399 5398 5398 5398 5397 5397 5397
5444 5443 5442 5441 5440 5439 5439 5439 5438 5438 5437 5436 5436 5435 5434 5433 5431 5430 5429 5427 5426 5424 5422 5420 5418 5416 5414 5411 5409 5407 5404 5402 5400 5399 5397 5396 5395 5394 5393 5392 5392 5392 5392 5392
5439 5438 5437 5436 5435 5434 5434 5434 5433 5433 5432 5431 5430 5429 5428 5427 5426 5425 5424 5422 5421 5419 5417 5414 5412 5410 5408 5406 5404 5402 5399 5397 5395 5394 5392 5391 5390 5389 5388 5388 5388 5388 5388 5388
5434 5433 5432 5431 5431 5430 5429 5429 5428 5428 5427 5426 5425 5424 5423 5422 5421 5420 5418 5417 5415 5413 5412 5410 5408 5405 5403 5401 5399 5396 5394 5392 5390 5389 5388 5386 5385 5385 5384 5383 5383 5383 5383 5383
5429 5428 5428 5427 5426 5425 5425 5424 5424 5423 5422 5421 5420 5419 5418 5417 5416 5415 5413 5412 5410 5408 5406 5405 5403 5400 5398 5396 5394 5391 5389 5387 5386 5384 5383 5382 5381 5380 5380 5379 5379 5378 5378 5378
5425 5424 5423 5422 5421 5421 5420 5420 5419 5418 5417 5416 5416 5414 5413 5412 5411 5409 5408 5406 5405 5403 5401 5399 5397 5395 5393 5391 5389 5387 5385 5383 5382 5380 5379 5378 5377 5376 5376 5375 5375 5374 5373 5373
5420 5419 5418 5417 5417 5416 5415 5415 5414 5413 5413 5412 5411 5410 5408 5407 5406 5404 5403 5401 5400 5398 5396 5394 5392 5390 5388 5386 5384 5383 5381 5379 5378 5377 5376 5375 5374 5373 5372 5371 5370 5370 5369 5369
5415 5414 5413 5412 5412 5411 5410 5410 5409 5409 5408 5407 5406 5405 5403 5402 5400 5399 5397 5396 5394 5393 5391 5389 5387 5385 5384 5382 5380 5378 5377 5375 5374 5373 5372 5371 5370 5369 5368 5368 5367 5366 5365 5365
5410 5409 5408 5407 5407 5406 5406 5405 5405 5404 5403 5402 5401 5400 5399 5397 5396 5394 5392 5391 5389 5388 5386 5384 5382 5381 5379 5378 5376 5374 5373 5372 5371 5370 5369 5368 5367 5366 5365 5364 5364 5363 5362 5362